Chapel Hill, NC

4:14 AM EDT on October 23, 2017 (GMT -0400)
Williams

Weather History for KIGX - January, 2014

Change the Weather History Date:

Tuesday, January 14, 2014

  Actual Average Record
Temperature  
Mean Temperature 46 °F -  
Max Temperature 53 °F 48 °F 73 °F (1960)
Min Temperature 39 °F 26 °F 7 °F (1962)
Degree Days  
Heating Degree Days 19    
Moisture  
Dew Point 44 °F    
Average Humidity 94    
Maximum Humidity 97    
Minimum Humidity 71    
Precipitation  
Precipitation 0.28 in - - ()
Sea Level Pressure  
Sea Level Pressure 29.88 in    
Wind  
Wind Speed 2 mph (WNW)    
Max Wind Speed 10 mph    
Max Gust Speed 17 mph    
Visibility 4 miles    
Events Fog , Rain    
Averages and records for this station are not official NWS values.
T = Trace of Precipitation, MM = Missing Value Source: NWS Daily Summary

Daily Weather History Graph

Daily Weather History Graph

Search for Another Location

Airport or City:

Trip Planner

Search our weather history database for the weather conditions in past years. The results will help you decide how hot, cold, wet, or windy it might be!

Date:

Astronomy

Jan. 14, 2014 Rise Set
Actual Time 7:26 AM EST 5:24 PM EST
Civil Twilight 6:58 AM EST 5:52 PM EST
Nautical Twilight 6:26 AM EST 6:24 PM EST
Astronomical Twilight 5:56 AM EST 6:55 PM EST
Moon 4:27 PM EST (1/14) 6:00 AM EST (1/14)
Length of Visible Light 10h 54m
Length of Day
9h 58m
Waxing Gibbous, 98% of the Moon is Illuminated
Jan 14
Waxing Gibbous
Jan 15
Full
Jan 24
Last Quarter
Jan 30
New
Feb 6
First Quarter

Hourly Weather History & Observations

Time (EST) Temp. Dew Point Humidity Pressure Visibility Wind Dir Wind Speed Gust Speed Precip Events Conditions
12:56 AM 50.0 °F 44.1 °F 80% 29.90 in 10.0 mi Calm Calm - 0.01 in Rain Light Rain
1:56 AM 48.9 °F 46.0 °F 90% 29.89 in 9.0 mi Calm Calm - 0.01 in Rain Light Rain
2:21 AM 48.9 °F 46.0 °F 90% 29.89 in 10.0 mi Calm Calm - 0.01 in Rain Light Rain
2:56 AM 48.9 °F 46.9 °F 93% 29.90 in 10.0 mi Calm Calm - 0.01 in   Overcast
3:56 AM 48.9 °F 46.9 °F 93% 29.87 in 10.0 mi Calm Calm - N/A   Overcast
4:44 AM 48.0 °F 46.9 °F 96% 29.86 in 4.0 mi Calm Calm - 0.01 in Rain Light Rain
4:56 AM 48.0 °F 46.0 °F 93% 29.84 in 9.0 mi Calm Calm - 0.01 in   Overcast
5:56 AM 48.0 °F 46.9 °F 96% 29.83 in 5.0 mi Calm Calm - 0.01 in   Overcast
6:56 AM 48.0 °F 46.0 °F 93% 29.81 in 6.0 mi Calm Calm - 0.01 in   Overcast
7:56 AM 48.0 °F 46.0 °F 93% 29.81 in 8.0 mi Calm Calm - N/A   Overcast
8:05 AM 48.0 °F 46.0 °F 93% 29.82 in 7.0 mi Calm Calm - N/A   Overcast
8:14 AM 48.0 °F 46.9 °F 96% 29.82 in 6.0 mi Calm Calm - N/A   Overcast
8:56 AM 48.0 °F 46.9 °F 96% 29.81 in 6.0 mi Calm Calm - 0.00 in Rain Light Rain
9:25 AM 48.0 °F 46.9 °F 96% 29.82 in 2.5 mi West 5.8 mph - 0.00 in   Overcast
9:33 AM 48.0 °F 46.9 °F 96% 29.82 in 3.0 mi WNW 4.6 mph - 0.00 in   Overcast
9:56 AM 48.0 °F 46.9 °F 96% 29.81 in 3.0 mi Calm Calm - 0.00 in Rain Light Rain
10:03 AM 48.0 °F 46.9 °F 96% 29.81 in 2.0 mi Calm Calm - 0.01 in Rain Light Rain
10:16 AM 48.0 °F 46.9 °F 96% 29.81 in 1.8 mi Calm Calm - 0.02 in Rain Light Rain
10:28 AM 48.0 °F 46.9 °F 96% 29.82 in 1.5 mi West 4.6 mph - 0.05 in Rain Light Rain
10:38 AM 48.0 °F 46.9 °F 96% 29.82 in 2.0 mi West 5.8 mph - 0.06 in Rain Light Rain
10:51 AM 48.2 °F 46.4 °F 93% 29.82 in 1.5 mi WNW 8.1 mph - 0.09 in Rain Rain
10:54 AM 48.2 °F 46.4 °F 93% 29.82 in 2.0 mi WNW 8.1 mph - 0.09 in Rain Light Rain
10:56 AM 48.0 °F 46.0 °F 93% 29.82 in 2.5 mi WNW 9.2 mph - 0.09 in Rain Light Rain
11:05 AM 48.0 °F 46.9 °F 96% 29.83 in 1.8 mi WNW 9.2 mph - 0.01 in Rain Light Rain
11:12 AM 48.0 °F 46.9 °F 96% 29.82 in 1.8 mi West 8.1 mph - 0.02 in Rain Light Rain
11:20 AM 48.9 °F 46.9 °F 93% 29.82 in 2.5 mi West 5.8 mph - 0.03 in Rain Light Rain
11:45 AM 48.9 °F 46.9 °F 93% 29.80 in 2.5 mi Variable 5.8 mph - 0.07 in Rain Rain
11:52 AM 48.2 °F 46.4 °F 93% 29.79 in 5.0 mi West 6.9 mph - 0.08 in Rain Light Rain
11:56 AM 48.9 °F 46.9 °F 93% 29.80 in 7.0 mi West 8.1 mph - 0.08 in Rain Light Rain
12:27 PM 48.9 °F 46.9 °F 93% 29.81 in 5.0 mi West 10.4 mph 17.3 mph 0.01 in Rain Light Rain
12:34 PM 48.9 °F 46.9 °F 93% 29.79 in 5.0 mi NW 9.2 mph 17.3 mph 0.02 in Rain Light Rain
12:56 PM 48.9 °F 46.9 °F 93% 29.82 in 8.0 mi Variable 3.5 mph - 0.03 in Rain Light Rain
1:56 PM 50.0 °F 46.9 °F 89% 29.81 in 10.0 mi Calm Calm - 0.02 in   Overcast
2:56 PM 53.1 °F 46.9 °F 80% 29.83 in 10.0 mi WNW 6.9 mph - N/A   Clear
3:56 PM 53.1 °F 44.1 °F 71% 29.86 in 10.0 mi West 6.9 mph - N/A   Clear
4:56 PM 50.0 °F 45.0 °F 83% 29.89 in 10.0 mi Calm Calm - N/A   Clear
5:56 PM 46.0 °F 44.1 °F 93% 29.91 in 5.0 mi Calm Calm - N/A   Clear
6:05 PM 45.0 °F 44.1 °F 97% 29.90 in 2.0 mi Calm Calm - N/A   Clear
6:20 PM 44.1 °F 43.0 °F 96% 29.91 in 1.0 mi Calm Calm - N/A   Clear
6:30 PM 44.1 °F 43.0 °F 96% 29.91 in 0.5 mi Calm Calm - N/A Fog Fog
6:41 PM 44.1 °F 42.1 °F 93% 29.92 in 0.8 mi Calm Calm - N/A   Clear
6:53 PM 44.6 °F 42.8 °F 93% 29.92 in 3.0 mi Calm Calm - N/A   Clear
6:56 PM 44.1 °F 43.0 °F 96% 29.93 in 6.0 mi Calm Calm - N/A   Clear
7:13 PM 43.0 °F 42.1 °F 97% 29.94 in 1.8 mi Calm Calm - N/A   Clear
7:22 PM 43.0 °F 42.1 °F 97% 29.94 in 2.5 mi Calm Calm - N/A   Clear
7:30 PM 43.0 °F 42.1 °F 97% 29.94 in 0.8 mi Calm Calm - N/A   Clear
7:44 PM 42.1 °F 41.0 °F 96% 29.94 in 1.5 mi Calm Calm - N/A   Clear
7:56 PM 43.0 °F 42.1 °F 97% 29.94 in 2.0 mi Calm Calm - N/A   Clear
8:03 PM 43.0 °F 41.0 °F 93% 29.94 in 1.0 mi Calm Calm - N/A   Clear
8:10 PM 43.0 °F 41.0 °F 93% 29.94 in 0.8 mi Calm Calm - N/A   Clear
8:31 PM 42.1 °F 41.0 °F 96% 29.95 in 0.8 mi Calm Calm - N/A   Mist
8:40 PM 42.1 °F 39.9 °F 92% 29.96 in 0.5 mi Calm Calm - N/A Fog Fog
8:56 PM 41.0 °F 39.9 °F 96% 29.96 in 0.5 mi Calm Calm - N/A Fog Fog
9:02 PM 41.0 °F 39.9 °F 96% 29.96 in 1.0 mi Calm Calm - N/A   Clear
9:56 PM 39.9 °F 39.0 °F 97% 29.98 in 0.5 mi Calm Calm - N/A Fog Fog
10:11 PM 39.9 °F 39.0 °F 97% 29.98 in 1.0 mi Calm Calm - N/A   Clear
10:27 PM 39.9 °F 39.0 °F 97% 29.98 in 0.8 mi Calm Calm - N/A   Clear
10:32 PM 39.9 °F 39.0 °F 97% 29.97 in 1.0 mi Calm Calm - N/A   Mist
10:38 PM 39.9 °F 37.9 °F 93% 29.97 in 0.8 mi Calm Calm - N/A   Clear
10:46 PM 39.0 °F 37.9 °F 96% 29.97 in 0.5 mi Calm Calm - N/A Fog Fog
10:56 PM 39.0 °F 37.0 °F 93% 29.97 in 0.2 mi Calm Calm - N/A Fog Fog
11:35 PM 39.0 °F 37.9 °F 96% 29.96 in 0.5 mi Calm Calm - N/A Fog Fog
11:40 PM 39.0 °F 37.9 °F 96% 29.96 in 1.0 mi Calm Calm - N/A   Clear
11:54 PM 39.2 °F 37.4 °F 93% 29.96 in 0.5 mi Calm Calm - N/A Fog Fog
11:55 PM 39.0 °F 37.9 °F 96% 29.96 in 0.5 mi Calm Calm - N/A Fog Fog